Hatteras, NC

5:34 AM EDT on March 27, 2017 (GMT -0400)
Mitchell

Weather History for KHSE - April, 2013

Change the Weather History Date:

Wednesday, April 3, 2013

  Actual Average Record
Temperature  
Mean Temperature 48 °F 56 °F  
Max Temperature 53 °F 63 °F 79 °F (1974)
Min Temperature 43 °F 49 °F 33 °F (1965)
Degree Days  
Heating Degree Days 17 9  
Month to date heating degree days 38 28  
Since 1 July heating degree days 2257 2371  
Cooling Degree Days 0 0  
Month to date cooling degree days 0 0  
Year to date cooling degree days 0 3  
Moisture  
Dew Point 33 °F    
Average Humidity 59    
Maximum Humidity 83    
Minimum Humidity 35    
Precipitation  
Precipitation 0.00 in 0.14 in 1.65 in (1915)
Month to date precipitation 0.02 0.42  
Year to date precipitation 11.97 14.45  
Snow  
Snow 0.00 in - - ()
Month to date snowfall 0.0  
Since 1 July snowfall 0.0  
Snow Depth 0.00 in    
Sea Level Pressure  
Sea Level Pressure 30.22 in    
Wind  
Wind Speed 7 mph (ENE)    
Max Wind Speed 16 mph    
Max Gust Speed 25 mph    
Visibility 10 miles    
Events      
T = Trace of Precipitation, MM = Missing Value Source: NWS Daily Summary

Daily Weather History Graph

Daily Weather History Graph

Search for Another Location

Airport or City:

Trip Planner

Search our weather history database for the weather conditions in past years. The results will help you decide how hot, cold, wet, or windy it might be!

Date:

Astronomy

Apr. 03, 2013 Rise Set
Actual Time 6:46 AM EDT 7:25 PM EDT
Civil Twilight 6:20 AM EDT 7:51 PM EDT
Nautical Twilight 5:50 AM EDT 8:21 PM EDT
Astronomical Twilight 5:19 AM EDT 8:52 PM EDT
Moon 2:10 AM EDT (4/3) 12:49 PM EDT (4/3)
Length of Visible Light 13h 30m
Length of Day
12h 39m
Last Quarter, 45% of the Moon is Illuminated
Apr 3
Last Quarter
Apr 10
New
Apr 18
First Quarter
Apr 25
Full
May 2
Last Quarter

Hourly Weather History & Observations

Time (EDT) Temp. Windchill Dew Point Humidity Pressure Visibility Wind Dir Wind Speed Gust Speed Precip Events Conditions
12:51 AM 43.0 °F 40.3 °F 37.0 °F 80% 30.13 in 10.0 mi East 4.6 mph - N/A   Clear
1:51 AM 44.1 °F 41.5 °F 37.9 °F 79% 30.14 in 10.0 mi East 4.6 mph - N/A   Clear
2:51 AM 45.0 °F 43.5 °F 39.0 °F 80% 30.14 in 10.0 mi East 3.5 mph - N/A   Clear
3:51 AM 46.0 °F - 39.9 °F 79% 30.15 in 10.0 mi Calm Calm - N/A   Clear
4:51 AM 52.0 °F - 42.1 °F 69% 30.14 in 10.0 mi Calm Calm - N/A   Mostly Cloudy
5:51 AM 53.1 °F - 44.1 °F 71% 30.16 in 10.0 mi Variable 4.6 mph - N/A   Overcast
6:51 AM 51.1 °F - 39.0 °F 63% 30.19 in 10.0 mi North 9.2 mph - N/A   Overcast
7:51 AM 50.0 °F - 41.0 °F 71% 30.19 in 10.0 mi NNE 11.5 mph 21.9 mph N/A   Overcast
8:51 AM 48.0 °F - 37.0 °F 66% 30.24 in 10.0 mi NE 10.4 mph 23.0 mph N/A   Overcast
9:51 AM 48.9 °F - 34.0 °F 56% 30.25 in 10.0 mi NE 9.2 mph 20.7 mph N/A   Overcast
10:51 AM 48.9 °F - 28.0 °F 44% 30.25 in 10.0 mi NE 11.5 mph 25.3 mph N/A   Overcast
11:51 AM 51.1 °F - 24.1 °F 35% 30.25 in 10.0 mi NE 10.4 mph 21.9 mph N/A   Overcast
12:51 PM 50.0 °F - 27.0 °F 41% 30.24 in 10.0 mi ENE 10.4 mph 20.7 mph N/A   Overcast
1:51 PM 50.0 °F - 26.1 °F 39% 30.25 in 10.0 mi NE 10.4 mph 17.3 mph N/A   Overcast
2:51 PM 51.1 °F - 26.1 °F 38% 30.24 in 10.0 mi NE 10.4 mph 16.1 mph N/A   Overcast
3:51 PM 53.1 °F - 26.1 °F 35% 30.22 in 10.0 mi NNE 10.4 mph 17.3 mph N/A   Mostly Cloudy
4:51 PM 52.0 °F - 26.1 °F 37% 30.23 in 10.0 mi ENE 9.2 mph - N/A   Scattered Clouds
5:51 PM 50.0 °F - 28.0 °F 43% 30.25 in 10.0 mi ENE 6.9 mph - N/A   Overcast
6:51 PM 48.0 °F - 26.1 °F 42% 30.26 in 10.0 mi ENE 5.8 mph - N/A   Partly Cloudy
7:51 PM 45.0 °F 41.2 °F 28.9 °F 53% 30.26 in 10.0 mi ENE 6.9 mph - N/A   Clear
8:51 PM 46.0 °F 43.1 °F 32.0 °F 58% 30.27 in 10.0 mi ENE 5.8 mph - N/A   Clear
9:51 PM 46.0 °F 43.9 °F 34.0 °F 63% 30.30 in 10.0 mi ENE 4.6 mph - N/A   Clear
10:51 PM 46.0 °F 43.9 °F 35.1 °F 66% 30.32 in 10.0 mi ENE 4.6 mph - N/A   Clear
11:51 PM 45.0 °F 42.6 °F 35.1 °F 68% 30.31 in 10.0 mi ENE 4.6 mph - N/A   Clear